Temperature
21 20 20 20 25 28 27 27 28 27 27 25 25 25 25 25 24 22 20 19 19 19 18 18 19 19 18 18 18 19 19 19 19 19 19 19 19 19 19 19 18 18 18 18 18 18 18 18 18
20 20 20 24 28 28 27 27 27 27 26 25 25 25 25 23 22 20 19 19 19 19 18 18 19 19 18 18 18 18 19 19 19 19 19 18 18 18 19 18 18 18 18 18 18 18 18 18 18
20 20 23 28 29 28 27 27 27 26 25 25 25 24 24 22 21 20 19 19 19 19 18 18 19 19 19 18 18 18 19 19 19 19 18 18 18 18 18 18 18 18 18 18 18 18 18 18 18
20 22 26 29 28 28 28 28 27 27 26 25 25 24 22 20 20 20 19 19 19 19 19 18 19 19 19 19 19 19 19 19 18 18 18 18 18 18 18 18 18 18 18 18 18 18 18 18 18
22 26 29 29 28 28 28 28 27 27 26 25 25 24 22 20 20 19 19 19 19 19 19 18 19 19 19 19 19 19 19 19 19 19 18 18 18 18 18 18 18 18 18 18 18 18 18 18 18
26 29 30 29 29 29 29 27 27 27 26 25 25 24 21 20 19 19 19 19 19 19 19 18 19 19 19 19 18 18 18 19 18 18 18 18 18 18 18 18 18 18 18 18 18 18 18 18 18
27 30 30 30 29 29 29 28 28 27 27 26 25 25 22 20 20 19 19 19 19 19 19 19 18 19 19 19 19 18 19 19 19 19 18 18 18 18 18 18 18 18 18 18 18 18 18 18 18
27 30 31 30 29 29 28 28 27 27 26 25 25 25 23 20 19 19 19 19 19 19 19 19 19 19 18 18 19 18 19 19 19 19 19 18 18 18 18 18 18 18 18 18 18 18 18 18 18
27 31 30 30 30 29 29 28 27 26 26 25 24 24 22 20 20 20 20 19 19 19 19 19 19 19 19 18 18 18 18 19 18 18 18 18 18 18 18 18 18 18 18 18 18 18 18 18 18
29 31 30 31 31 30 29 28 28 27 27 25 24 22 21 20 20 21 20 20 20 19 19 19 19 19 19 18 18 18 18 18 18 18 18 18 18 18 18 18 18 18 18 18 18 18 18 18 18
30 31 31 31 30 30 29 29 28 28 28 26 25 22 21 21 21 21 21 21 20 20 19 19 19 19 19 19 19 18 18 18 18 18 18 18 18 18 18 18 18 18 18 18 18 18 18 18 18
31 31 30 30 30 29 29 29 28 28 28 26 25 23 22 22 22 22 21 21 20 20 19 19 19 19 19 19 19 18 19 18 18 18 18 18 18 18 18 18 18 18 18 18 18 18 18 18 18
31 31 30 30 29 29 29 29 28 27 26 25 24 23 23 22 22 22 21 21 20 20 20 19 19 19 19 19 19 19 18 19 18 18 18 18 18 18 18 18 18 18 18 18 18 18 18 18 18
31 30 30 30 30 29 29 29 28 27 26 25 24 23 23 23 22 22 21 21 20 20 20 19 19 19 19 19 19 18 19 19 18 18 18 18 18 18 18 18 18 18 18 18 18 18 18 18 18
30 31 31 31 30 30 30 29 29 27 26 25 24 24 23 23 22 22 21 21 21 20 19 19 19 19 19 19 18 19 19 19 18 18 18 18 18 18 18 18 18 18 18 18 18 18 18 18 18
32 32 31 31 31 30 30 29 29 27 26 26 25 24 24 23 23 22 22 21 21 20 19 19 19 19 19 19 19 19 19 18 18 18 18 18 18 18 18 18 18 18 18 18 18 18 18 18 18
32 31 31 31 31 31 31 30 29 27 27 27 26 25 24 23 23 22 22 21 21 20 20 20 19 19 19 19 19 18 18 18 18 18 18 18 18 18 18 18 18 18 18 18 18 18 18 18 18
31 32 31 31 31 31 31 30 30 28 27 27 26 25 25 24 24 23 22 21 21 20 20 20 19 19 19 19 19 18 18 18 18 18 18 18 18 18 18 18 18 18 18 18 18 18 18 18 18
32 31 31 31 31 31 31 30 30 29 28 28 27 26 25 25 24 23 22 22 21 21 20 20 20 19 19 19 19 19 18 18 18 18 18 18 18 18 18 18 18 18 18 18 18 18 18 18 18
31 31 31 31 31 30 31 30 31 30 29 28 27 27 26 25 25 23 22 22 21 21 20 20 20 20 19 19 19 19 19 18 18 18 18 18 18 18 18 18 18 18 18 18 18 18 18 18 18
31 31 31 31 31 30 30 30 30 30 29 28 28 27 27 26 25 24 23 22 22 21 21 20 20 20 20 19 19 19 19 18 18 18 18 18 18 18 18 18 18 17 17 17 17 17 17 18 18
31 32 31 31 31 31 31 30 31 31 30 29 28 28 27 27 25 24 23 23 22 22 21 21 21 20 20 20 19 19 19 19 18 18 18 18 18 18 18 18 17 17 17 17 17 17 17 17 18
31 31 31 31 31 31 31 31 31 31 30 30 29 28 27 27 26 25 24 23 23 22 21 21 21 21 20 20 19 19 19 19 19 18 18 18 18 18 18 18 18 17 17 17 17 17 17 17 17
31 31 31 31 31 30 31 30 31 31 31 31 30 28 27 26 26 25 24 23 22 22 21 21 21 21 20 20 20 19 19 19 19 18 18 18 18 18 18 18 18 17 17 17 17 17 17 17 17
31 31 30 30 30 30 31 30 31 31 31 30 30 28 27 26 26 25 24 23 22 22 21 21 21 21 20 20 20 20 19 19 19 19 18 18 18 18 18 17 18 17 17 17 17 17 17 17 17
31 31 30 29 29 30 30 30 31 31 30 29 28 28 27 26 26 25 24 23 23 22 21 21 21 21 21 20 20 20 20 19 19 19 18 18 18 18 18 17 17 17 17 17 17 17 17 17 17
31 31 32 31 30 30 31 31 31 30 30 29 28 28 27 26 25 25 24 23 23 22 21 21 21 21 21 20 20 20 20 19 19 18 18 18 18 17 17 17 17 17 17 17 17 17 17 16 16
31 31 31 30 29 29 30 30 31 30 30 29 29 28 27 26 25 25 24 23 23 22 21 21 21 21 21 20 20 20 19 19 19 18 18 18 17 17 17 17 17 17 17 17 17 16 16 16 16
30 30 30 30 30 29 29 30 31 30 30 29 29 27 26 26 25 24 24 23 22 22 21 21 20 20 20 20 20 20 19 19 18 18 18 18 17 17 17 17 17 17 16 16 16 16 16 16 16
30 30 30 29 29 29 29 30 31 30 30 29 28 26 25 25 24 24 23 22 22 22 21 21 20 20 20 20 20 19 19 19 18 18 18 18 17 17 17 17 17 16 16 16 16 16 16 16 16
Wind_Speed
12 9 5 4 4 4 11 9 7 6 6 6 6 5 6 7 5 6 6 8 9 10 11 11 10 10 11 11 11 11 11 12 12 12 12 11 11 11 10 10 10 10 9 9 9 8 8 8 8
8 5 4 4 1 8 11 9 9 8 6 5 5 6 7 7 7 7 8 9 9 10 10 11 11 10 10 10 10 10 11 11 11 11 11 10 10 10 10 10 9 9 8 8 8 8 7 7 8
6 5 4 1 7 10 9 8 8 8 6 4 5 6 5 6 6 6 9 10 10 9 10 12 11 10 10 9 9 10 10 10 11 10 10 10 9 9 9 9 8 8 8 7 7 7 7 7 7
4 4 3 4 11 11 9 8 7 6 6 5 5 7 6 6 4 8 11 11 10 10 10 12 10 10 9 9 9 10 10 10 10 10 9 9 9 8 8 8 8 8 8 7 7 7 7 6 6
5 3 4 10 12 10 8 6 5 5 5 6 6 8 7 6 9 12 11 10 10 9 10 12 11 10 9 10 10 10 10 10 10 9 8 8 8 8 8 7 7 7 7 7 6 6 6 6 5
3 1 6 10 11 9 7 5 5 7 8 7 7 9 7 7 10 11 10 9 9 9 10 12 12 10 10 10 10 9 9 9 9 8 8 8 8 8 8 7 7 7 7 7 6 5 6 5 4
3 4 8 9 9 8 7 5 5 6 7 6 5 8 8 9 9 10 10 10 9 9 10 11 12 12 11 10 9 8 9 8 8 7 7 7 6 6 6 6 6 6 6 6 5 5 5 5 4
4 1 8 9 8 8 6 5 5 5 7 6 4 6 9 11 11 11 10 10 9 9 10 9 10 10 10 11 10 9 9 8 7 7 6 6 6 6 6 6 6 6 6 6 5 5 5 5 4
4 2 9 9 8 7 5 6 5 5 7 6 6 8 14 16 13 12 11 10 9 8 8 8 8 9 8 9 10 9 9 8 6 7 6 5 4 4 6 6 6 5 5 5 5 5 4 4 6
2 5 9 7 6 6 5 5 6 6 7 9 11 13 16 15 13 12 11 11 10 9 8 7 7 7 7 7 7 6 6 7 4 4 4 3 3 2 4 8 6 5 5 6 6 5 6 6 5
1 4 5 5 5 4 5 5 4 5 6 8 13 16 16 15 12 11 11 10 10 9 8 7 6 6 6 5 5 4 4 4 4 4 3 3 2 2 3 4 5 5 5 4 6 6 4 2 1
1 3 3 3 3 3 4 5 5 4 7 9 13 17 16 14 12 11 11 10 9 9 8 7 7 6 5 4 4 4 3 3 3 4 3 2 1 1 2 1 2 3 3 2 2 2 2 2 2
0 2 3 3 3 3 4 5 5 7 9 12 14 15 15 14 12 11 10 9 9 8 8 8 6 5 4 3 2 3 3 3 4 3 3 1 1 1 1 1 1 2 2 3 2 2 2 2 2
2 1 1 3 4 4 5 5 5 8 11 13 14 14 13 13 12 11 10 10 9 8 8 7 7 6 5 4 3 2 3 3 2 3 2 1 1 1 1 2 1 1 2 2 2 2 2 2 2
1 2 3 4 3 4 5 5 5 9 12 13 13 13 12 12 11 11 10 10 9 9 8 7 7 7 6 4 4 3 3 3 2 2 2 1 1 1 1 1 1 1 2 2 3 2 3 3 3
4 4 2 4 3 3 5 3 7 11 12 12 12 12 12 11 11 10 10 9 9 9 8 8 7 7 6 4 3 3 2 2 2 2 2 1 1 1 1 1 1 1 2 2 2 2 2 1 2
5 3 1 3 4 4 5 2 7 11 12 12 12 12 12 12 12 11 11 10 9 9 9 9 8 7 6 5 4 3 2 2 2 2 2 2 1 1 1 1 0 1 1 2 2 2 1 1 1
3 3 2 1 3 5 5 3 7 11 12 12 12 13 13 13 13 12 11 10 10 10 10 9 9 8 7 6 4 3 2 2 2 2 2 1 1 1 1 1 1 1 1 1 1 1 1 1 2
6 5 4 2 1 5 6 5 7 10 12 12 13 13 14 13 13 12 12 11 11 10 10 10 9 8 7 6 5 4 3 3 3 2 2 2 1 1 1 1 0 1 1 1 2 2 2 2 1
7 7 5 2 1 4 4 6 7 10 12 13 13 14 14 14 13 13 13 12 12 11 11 10 10 9 8 6 4 3 3 3 3 2 2 2 1 1 2 0 1 1 1 2 1 2 1 1 1
9 7 6 4 3 5 5 7 8 9 10 11 12 13 14 15 15 15 14 14 13 12 12 10 10 10 9 8 6 4 4 3 3 3 3 2 2 2 1 1 1 1 2 1 2 2 2 2 2
9 5 6 7 8 5 6 6 6 8 10 11 12 13 14 15 15 15 15 15 14 13 12 12 11 11 9 9 7 7 5 4 4 3 2 2 2 2 2 2 2 2 1 1 3 2 2 3 2
7 5 7 8 9 9 8 8 5 7 9 10 11 12 12 14 15 15 15 14 13 13 13 12 12 11 10 9 8 7 6 5 4 3 3 3 3 3 2 2 2 2 2 1 1 1 3 2 3
6 7 8 9 10 11 8 9 7 6 7 8 9 9 11 12 14 14 14 13 13 13 13 12 12 11 11 10 9 8 7 6 5 4 4 4 3 3 3 2 2 2 1 2 2 2 2 2 3
11 10 8 8 9 8 5 8 6 2 3 4 6 7 9 11 12 13 14 14 13 13 13 13 13 12 11 11 10 9 8 7 6 5 4 4 3 3 3 2 2 2 2 2 2 2 2 2 3
12 12 10 8 8 7 6 8 3 1 2 3 5 7 8 9 11 13 13 13 13 14 14 13 13 12 11 11 9 9 8 7 5 5 4 4 3 2 3 3 3 2 2 2 2 2 2 2 3
12 12 10 11 11 10 7 6 4 3 3 3 4 6 7 8 8 10 12 13 13 13 14 13 13 12 12 11 10 9 8 7 5 5 5 4 3 3 3 3 3 3 3 2 2 2 2 2 3
11 10 10 11 10 11 9 9 5 5 5 5 5 6 7 7 8 8 9 11 12 12 12 12 12 12 11 11 10 8 8 7 6 6 5 5 4 3 4 4 3 3 3 3 3 3 2 3 3
11 12 11 11 11 11 10 6 1 3 4 5 5 5 6 6 7 7 8 9 10 11 12 12 12 11 11 10 10 9 8 8 7 6 6 6 5 4 4 4 4 4 4 3 3 4 3 3 3
12 14 14 13 11 11 12 7 3 2 2 4 4 5 5 5 6 7 8 9 9 10 11 11 11 11 10 10 9 9 9 8 8 7 7 6 6 5 5 4 4 4 4 4 4 4 3 4 4
Wind_Direction
174 180 207 235 230 87 64 57 57 65 63 61 60 56 53 42 35 82 107 117 118 123 123 127 123 123 121 120 121 123 124 126 128 127 127 128 128 127 126 124 121 120 119 117 119 120 119 118 118
171 186 229 245 51 73 65 58 60 61 79 93 80 73 67 64 66 101 121 122 125 122 124 123 120 122 120 121 124 125 125 127 129 131 132 133 132 132 130 127 124 122 125 128 127 125 123 118 122
183 224 264 301 59 63 69 68 74 81 89 81 78 65 54 61 86 110 120 132 126 120 121 117 122 121 119 120 125 126 124 125 128 132 133 135 135 135 134 131 129 126 126 128 132 134 130 124 126
219 233 234 73 72 65 67 78 90 93 89 77 92 85 73 57 82 112 126 134 128 126 124 119 125 122 119 117 122 124 123 123 124 125 128 132 132 131 131 131 133 132 132 130 129 132 132 131 132
247 269 99 81 75 72 69 73 90 77 73 84 88 93 85 71 95 116 127 129 127 129 127 124 124 123 120 117 119 118 121 123 123 122 123 128 130 130 129 128 132 135 136 136 136 137 138 140 142
262 273 72 75 78 80 77 80 87 89 95 100 101 100 89 103 114 120 125 122 119 123 129 126 128 122 118 116 117 118 120 121 120 119 118 120 123 123 121 123 130 136 138 135 134 138 142 140 146
318 49 68 75 80 80 74 78 82 94 100 96 104 103 113 122 122 125 121 117 115 115 121 127 132 131 129 121 117 116 117 115 114 114 115 115 120 126 126 124 132 138 137 136 130 129 134 134 137
299 17 76 72 71 76 85 92 88 91 95 105 110 114 132 136 135 130 123 119 115 113 117 123 126 127 131 128 122 118 112 109 113 116 115 119 134 142 142 141 132 137 139 138 130 130 127 129 132
269 60 67 60 63 82 102 108 104 99 110 104 91 101 127 136 138 135 130 128 125 121 120 121 123 126 125 121 120 126 126 123 132 131 128 140 130 128 143 117 119 128 136 146 143 140 136 152 159
281 56 61 56 60 87 111 109 121 128 121 115 112 115 129 141 145 143 139 139 136 133 128 123 122 122 118 116 121 126 123 120 121 114 119 118 105 108 113 119 130 141 148 156 156 160 179 205 172
5 41 54 68 69 89 115 117 128 127 119 131 138 140 145 149 151 148 143 141 137 136 133 134 125 120 118 121 126 120 117 119 128 119 114 116 128 128 129 136 147 150 168 168 157 185 186 172 148
41 42 33 55 83 105 117 120 117 101 98 125 140 146 152 156 157 155 151 145 143 142 143 140 134 128 122 116 122 135 133 131 123 123 136 137 124 111 120 128 130 143 148 156 173 169 159 168 178
102 39 49 80 115 115 124 118 111 112 118 131 140 151 158 161 160 159 155 153 154 154 152 148 142 135 137 136 149 132 136 138 133 133 141 156 151 129 126 119 147 162 153 173 180 165 165 181 182
29 41 86 117 123 129 135 133 134 127 138 142 151 160 164 165 166 163 166 167 165 165 162 156 162 158 158 159 156 143 143 152 148 151 144 169 144 118 158 150 157 159 176 173 184 181 188 207 186
216 203 159 141 145 143 154 141 142 141 152 155 161 165 168 172 174 177 177 176 174 174 173 170 172 166 169 170 170 166 172 151 137 131 137 155 126 138 191 169 176 150 166 167 181 187 199 205 199
224 221 179 146 169 174 217 132 147 159 168 169 170 171 176 179 183 182 183 184 180 179 176 178 179 170 169 175 183 176 173 154 160 146 139 129 107 162 239 202 168 147 176 177 186 201 200 199 214
217 231 223 153 184 190 221 156 151 174 182 180 180 180 183 186 191 189 189 188 186 184 181 179 179 176 175 176 186 186 179 182 180 166 162 132 150 213 239 236 134 192 189 190 206 156 208 196 213
256 260 261 255 180 215 225 196 164 182 193 192 189 189 191 194 194 191 192 189 187 185 185 183 181 179 178 180 185 184 182 186 186 177 147 155 191 192 241 206 198 230 190 176 160 164 201 222 225
276 273 276 286 208 234 236 229 201 191 200 201 198 196 197 199 192 188 190 189 187 185 185 185 187 178 184 186 189 187 186 187 183 165 144 169 183 175 242 277 216 250 188 175 182 191 184 206 208
251 259 258 234 187 250 252 245 219 205 207 208 205 201 201 198 192 190 191 192 191 185 184 184 185 182 189 183 188 189 181 186 177 170 162 187 183 221 207 216 233 232 188 167 178 208 227 194 201
242 255 268 263 228 221 248 238 213 208 210 213 213 210 206 202 196 191 194 194 191 188 188 187 186 185 188 183 186 178 178 193 189 191 185 186 208 217 238 213 231 235 237 195 209 228 235 227 213
242 250 261 253 250 246 244 266 218 205 205 211 212 209 210 203 199 195 195 195 194 191 187 185 185 186 186 189 194 195 199 201 194 199 185 196 202 208 210 214 219 242 243 212 232 209 253 254 243
254 256 250 251 257 260 240 261 234 201 215 215 210 210 209 203 199 198 197 195 194 189 186 183 183 185 186 192 193 202 207 203 189 192 187 212 201 207 208 208 213 231 243 227 271 260 263 258 271
228 231 230 239 249 251 246 259 252 219 226 217 208 208 207 201 198 197 194 191 193 187 185 182 180 185 187 193 195 200 203 205 200 201 196 212 202 202 199 209 218 232 246 223 238 250 245 268 281
220 236 239 237 237 247 231 252 259 246 238 231 219 207 204 199 197 194 193 190 190 188 185 181 179 183 188 192 195 197 202 205 205 209 204 222 213 204 197 216 221 229 236 240 239 232 258 253 258
222 239 248 259 263 260 221 248 251 175 217 226 216 199 193 196 196 194 192 190 188 186 185 182 181 184 187 190 194 198 202 210 208 208 212 214 223 212 200 213 216 217 225 234 234 237 235 242 252
226 235 252 264 269 269 250 246 227 187 195 195 193 187 186 188 190 192 188 187 186 185 185 185 184 186 188 190 192 196 203 211 209 204 212 210 209 205 192 207 215 216 214 222 235 244 258 264 262
242 238 239 248 258 262 255 246 244 202 208 199 190 184 183 182 185 189 186 186 186 186 182 183 185 187 187 188 194 195 198 203 208 214 212 214 211 210 207 208 213 218 215 213 229 232 236 252 261
213 225 235 246 253 262 265 257 166 209 211 209 196 186 184 184 184 183 179 178 179 178 177 180 183 185 187 191 194 197 197 201 206 209 210 212 212 206 212 216 218 221 226 224 230 243 236 246 257
232 233 232 238 243 251 267 265 115 178 210 211 203 183 179 182 179 173 168 166 170 172 174 177 181 184 187 188 191 196 198 200 206 208 206 206 209 211 210 214 219 224 226 230 232 245 250 255 259
Height
1508 1508 1508 1510 1504 1499 1503 1502 1499 1501 1503 1507 1508 1507 1508 1510 1512 1521 1524 1523 1524 1525 1525 1525 1526 1527 1529 1530 1530 1532 1533 1534 1535 1537 1538 1539 1541 1542 1543 1544 1545 1546 1547 1548 1549 1550 1551 1552 1553
1509 1509 1510 1507 1497 1505 1509 1503 1503 1505 1508 1509 1510 1510 1510 1514 1518 1521 1523 1524 1526 1527 1528 1528 1528 1529 1530 1531 1532 1533 1534 1535 1537 1538 1540 1541 1542 1543 1545 1546 1547 1548 1548 1549 1550 1551 1552 1553 1553
1510 1509 1510 1500 1498 1505 1509 1504 1505 1508 1510 1510 1511 1512 1514 1518 1521 1522 1524 1525 1527 1528 1529 1529 1530 1531 1532 1532 1533 1534 1535 1537 1538 1540 1541 1542 1544 1545 1546 1547 1548 1549 1549 1550 1550 1552 1553 1554 1555
1511 1511 1507 1499 1504 1503 1503 1504 1507 1508 1510 1512 1512 1515 1519 1522 1523 1524 1525 1527 1528 1529 1531 1531 1531 1532 1533 1533 1534 1535 1537 1538 1540 1541 1542 1544 1545 1546 1547 1548 1549 1550 1550 1551 1552 1553 1554 1555 1556
1512 1508 1499 1501 1504 1504 1504 1506 1508 1508 1510 1513 1513 1516 1522 1524 1525 1525 1526 1528 1529 1530 1531 1532 1533 1534 1535 1534 1535 1537 1539 1540 1541 1543 1544 1545 1546 1547 1548 1549 1550 1551 1552 1552 1553 1554 1555 1556 1557
1511 1503 1501 1506 1506 1504 1505 1508 1508 1510 1512 1514 1515 1518 1524 1527 1527 1528 1529 1530 1530 1529 1530 1533 1534 1536 1537 1538 1538 1539 1541 1542 1543 1544 1545 1546 1547 1548 1549 1550 1550 1552 1553 1553 1554 1555 1556 1557 1558
1510 1500 1502 1502 1505 1505 1507 1509 1509 1511 1513 1515 1517 1519 1526 1529 1530 1530 1531 1532 1532 1531 1532 1535 1538 1538 1539 1540 1541 1542 1542 1544 1545 1546 1547 1547 1548 1549 1550 1551 1551 1552 1553 1554 1555 1556 1556 1557 1558
1510 1501 1499 1500 1504 1507 1508 1510 1512 1512 1515 1518 1519 1520 1525 1530 1531 1532 1533 1534 1535 1536 1537 1539 1541 1542 1543 1543 1543 1544 1545 1546 1547 1548 1548 1549 1550 1551 1551 1552 1552 1553 1554 1555 1555 1556 1557 1558 1559
1510 1501 1503 1502 1504 1506 1508 1510 1513 1515 1516 1519 1520 1522 1526 1530 1532 1534 1536 1537 1538 1539 1540 1542 1543 1544 1545 1546 1546 1546 1547 1548 1549 1550 1550 1550 1552 1553 1553 1553 1553 1554 1554 1555 1556 1557 1557 1558 1559
1507 1502 1503 1502 1503 1505 1508 1510 1512 1514 1516 1519 1523 1526 1528 1531 1533 1535 1537 1538 1540 1541 1542 1543 1545 1546 1547 1548 1548 1549 1551 1551 1551 1551 1552 1552 1553 1553 1554 1554 1554 1554 1555 1556 1556 1557 1558 1559 1561
1505 1503 1503 1504 1505 1506 1508 1510 1512 1512 1514 1518 1522 1526 1529 1532 1535 1536 1538 1540 1541 1543 1544 1545 1546 1547 1548 1549 1550 1551 1552 1552 1553 1553 1553 1553 1554 1554 1555 1555 1556 1556 1556 1557 1558 1558 1560 1561 1561
1505 1505 1505 1505 1507 1508 1508 1510 1512 1513 1516 1520 1523 1526 1530 1532 1535 1537 1539 1541 1542 1544 1545 1547 1547 1548 1549 1550 1551 1552 1553 1554 1554 1554 1554 1554 1555 1555 1556 1556 1557 1557 1557 1558 1559 1559 1560 1560 1560
1505 1505 1506 1507 1508 1508 1509 1511 1513 1516 1519 1522 1524 1528 1530 1533 1535 1537 1539 1541 1543 1545 1546 1547 1548 1548 1549 1550 1551 1553 1554 1555 1555 1554 1554 1555 1555 1555 1556 1556 1556 1558 1558 1558 1559 1559 1559 1560 1561
1505 1506 1506 1506 1507 1509 1510 1511 1514 1518 1521 1523 1526 1528 1531 1533 1535 1538 1540 1541 1543 1545 1546 1547 1548 1549 1550 1551 1552 1553 1554 1554 1555 1555 1555 1555 1555 1555 1556 1556 1556 1557 1558 1558 1558 1559 1559 1560 1560
1506 1505 1504 1505 1507 1508 1509 1511 1513 1518 1521 1523 1526 1528 1531 1533 1535 1537 1539 1541 1543 1544 1546 1547 1548 1549 1550 1551 1553 1554 1554 1555 1555 1555 1555 1555 1555 1555 1556 1556 1556 1557 1557 1557 1558 1558 1558 1559 1560
1502 1501 1504 1503 1505 1507 1508 1512 1513 1517 1520 1522 1525 1528 1530 1532 1535 1537 1539 1540 1542 1543 1545 1546 1548 1549 1550 1551 1552 1554 1554 1555 1555 1555 1555 1555 1555 1555 1555 1556 1556 1556 1557 1557 1557 1558 1558 1559 1559
1499 1503 1503 1503 1503 1504 1505 1508 1511 1515 1518 1520 1523 1526 1529 1531 1534 1535 1537 1539 1541 1542 1544 1545 1547 1548 1550 1550 1552 1553 1553 1554 1554 1555 1555 1555 1555 1555 1555 1555 1555 1556 1556 1556 1557 1557 1557 1557 1558
1505 1501 1502 1502 1500 1502 1503 1504 1508 1513 1515 1517 1520 1523 1526 1528 1531 1533 1536 1537 1539 1541 1542 1544 1545 1547 1548 1550 1551 1552 1553 1553 1554 1554 1554 1554 1554 1554 1554 1555 1554 1555 1556 1556 1555 1555 1556 1556 1557
1498 1500 1502 1500 1498 1501 1502 1503 1504 1509 1512 1514 1517 1520 1523 1526 1529 1531 1534 1535 1537 1539 1540 1542 1544 1545 1547 1549 1550 1551 1552 1553 1553 1554 1553 1553 1554 1554 1554 1554 1554 1554 1555 1555 1555 1555 1555 1556 1556
1499 1501 1500 1498 1498 1501 1500 1501 1500 1504 1507 1510 1513 1516 1519 1522 1526 1529 1531 1533 1535 1537 1539 1540 1542 1544 1546 1547 1549 1550 1551 1552 1553 1553 1552 1553 1553 1553 1554 1553 1553 1553 1553 1553 1554 1554 1555 1555 1555
1498 1499 1499 1500 1499 1499 1501 1502 1499 1499 1504 1507 1509 1512 1515 1518 1521 1525 1528 1530 1533 1535 1536 1539 1540 1542 1544 1546 1548 1549 1550 1551 1552 1552 1552 1552 1552 1552 1552 1552 1552 1552 1553 1553 1553 1553 1553 1554 1554
1499 1493 1495 1498 1500 1499 1500 1506 1495 1493 1498 1502 1505 1507 1510 1514 1518 1521 1525 1528 1530 1532 1534 1536 1538 1540 1542 1544 1546 1547 1549 1550 1551 1551 1551 1551 1551 1551 1551 1551 1551 1551 1552 1552 1552 1552 1552 1553 1553
1493 1492 1494 1495 1497 1499 1497 1502 1493 1490 1495 1496 1499 1502 1506 1509 1513 1517 1521 1524 1527 1530 1532 1534 1536 1538 1540 1542 1544 1545 1547 1548 1549 1549 1549 1550 1550 1550 1550 1550 1550 1549 1550 1550 1550 1551 1551 1551 1552
1492 1494 1494 1493 1494 1506 1497 1501 1497 1486 1488 1489 1494 1499 1502 1506 1510 1514 1518 1521 1524 1527 1529 1531 1533 1535 1537 1539 1541 1543 1544 1546 1547 1547 1548 1548 1549 1549 1548 1549 1548 1549 1549 1549 1549 1549 1549 1549 1549
1491 1496 1505 1508 1506 1503 1490 1496 1491 1482 1485 1488 1492 1496 1500 1503 1506 1510 1513 1517 1520 1523 1525 1528 1530 1532 1535 1537 1539 1540 1542 1543 1544 1545 1546 1546 1547 1547 1547 1547 1547 1547 1547 1547 1547 1547 1547 1547 1547
1487 1490 1505 1515 1509 1497 1492 1494 1483 1482 1486 1489 1491 1494 1497 1500 1503 1506 1509 1513 1516 1519 1522 1524 1527 1529 1532 1534 1536 1538 1539 1541 1542 1543 1544 1544 1545 1545 1545 1545 1545 1545 1545 1545 1545 1546 1545 1545 1545
1486 1486 1482 1491 1494 1499 1490 1485 1480 1481 1485 1488 1490 1492 1495 1498 1500 1503 1506 1509 1512 1515 1518 1521 1524 1526 1529 1531 1533 1535 1536 1538 1540 1540 1541 1542 1543 1543 1543 1543 1543 1543 1543 1543 1543 1544 1543 1544 1544
1480 1480 1485 1492 1507 1508 1495 1488 1483 1481 1483 1485 1488 1490 1493 1496 1499 1501 1503 1506 1509 1512 1515 1518 1521 1523 1525 1528 1530 1532 1534 1535 1536 1538 1539 1539 1540 1541 1541 1541 1541 1541 1541 1541 1541 1541 1541 1541 1541
1483 1484 1484 1485 1488 1501 1503 1489 1472 1477 1480 1482 1485 1489 1492 1495 1497 1499 1501 1504 1507 1510 1512 1515 1518 1520 1522 1525 1527 1529 1530 1532 1534 1535 1535 1536 1537 1538 1538 1538 1539 1539 1539 1539 1539 1539 1539 1539 1539
1475 1477 1480 1490 1493 1490 1492 1486 1471 1475 1478 1481 1484 1488 1491 1493 1495 1497 1500 1502 1505 1507 1510 1512 1515 1517 1519 1522 1524 1526 1528 1529 1531 1532 1532 1533 1534 1535 1536 1536 1537 1537 1537 1537 1537 1537 1537 1536 1536